1536454800.28,44013,17.0,74292.8,1.37,0.43,0.55,0,*7D
1536454801.48,44014,17.0,74292.3,1.35,0.41,0.41,0,*7F
1536454802.7,44015,17.0,74294.8,1.35,0.47,0.47,0,*7E
1536454803.92,44016,17.0,74294.0,1.35,0.51,0.59,0,*75
1536454805.14,44017,17.0,74286.8,1.35,0.59,0.59,0,*7C
1536454806.34,44018,17.0,74286.3,1.35,0.67,0.67,0,*73
1536454807.55,44019,17.0,74292.3,1.35,0.63,0.67,0,*76
1536454808.76,44020,17.0,74290.0,1.35,0.63,0.63,0,*78
1536454809.97,44021,17.0,74288.8,1.35,0.63,0.59,0,*70
1536454811.19,44022,17.0,74286.5,1.35,0.59,0.51,0,*72
1536454812.43,44023,17.0,74290.5,1.33,0.55,0.47,0,*7E
1536454813.68,44024,17.0,74290.0,1.33,0.55,0.55,0,*7A
1536454814.92,44025,17.0,74292.8,1.33,0.47,0.47,0,*7B
1536454816.13,44026,17.0,74294.8,1.33,0.43,0.37,0,*7B
1536454817.37,44027,16.94,74288.5,1.33,0.25,0.25,0,*79
1536454818.61,44028,17.0,74290.0,1.33,0.13,0.21,0,*77
1536454819.85,44029,17.0,74292.5,1.33,0.21,0.13,0,*76
1536454821.06,44030,17.0,74294.8,1.31,0.21,0.13,0,*7C
1536454822.28,44031,17.0,74292.8,1.31,0.21,0.21,0,*7C
1536454823.5,44032,17.0,74296.0,1.31,0.21,0.13,0,*7E
1536454824.66,44033,17.0,74298.5,1.31,0.01,0.09,0,*76
1536454825.83,44034,17.0,74300.3,1.27,-0.03,-0.03,0,*7E
1536454827.04,44035,17.0,74298.5,1.29,-0.07,-0.15,0,*42
1536454828.27,44036,17.0,74296.0,1.29,-0.19,-0.27,0,*7F
1536454829.44,44037,17.0,74296.0,1.27,-0.29,-0.29,0,*7D
1536454830.63,44038,17.0,74302.0,1.27,-0.29,-0.19,0,*71
1536454831.82,44039,17.0,74302.3,1.25,-0.29,-0.29,0,*71
1536454833.01,44040,17.0,74298.3,1.23,-0.37,-0.33,0,*7D
1536454834.2,44041,17.0,74300.0,1.23,-0.37,-0.49,0,*71
1536454835.39,44042,17.0,74300.3,1.23,-0.49,-0.57,0,*74
1536454836.57,44043,17.0,74302.8,1.23,-0.33,-0.37,0,*7E
1536454837.78,44044,17.0,74302.0,1.21,-0.37,-0.41,0,*7E
1536454838.99,44045,17.0,74302.0,1.17,-0.45,-0.45,0,*7B
1536454840.2,44046,17.0,74300.0,1.17,-0.57,-0.53,0,*7C
1536454841.41,44047,17.0,74300.3,1.17,-0.45,-0.57,0,*7A
1536454842.61,44048,17.0,74302.8,1.15,-0.41,-0.41,0,*74
1536454843.8,44049,17.0,74304.3,1.15,-0.33,-0.33,0,*75
1536454845.01,44050,17.0,74306.5,1.13,-0.33,-0.33,0,*7B
1536454846.2,44051,17.0,74306.3,1.15,-0.37,-0.37,0,*7C
1536454847.42,44052,17.0,74310.8,1.13,-0.41,-0.41,0,*79
1536454848.64,44053,17.0,74304.3,1.13,-0.41,-0.45,0,*7C
1536454849.85,44054,17.0,74308.3,1.13,-0.33,-0.33,0,*7F
1536454851.04,44055,17.0,74306.5,1.11,-0.19,-0.29,0,*7F
1536454852.23,44056,17.0,74308.0,1.11,-0.11,-0.19,0,*77
1536454853.42,44057,17.0,74310.5,1.11,-0.19,-0.19,0,*7E
1536454854.63,44058,17.0,74304.3,1.11,-0.19,-0.23,0,*78
1536454855.83,44059,17.0,74308.5,1.11,-0.11,-0.11,0,*70
1536454857.04,44060,17.0,74310.0,1.09,0.13,0.09,0,*48
1536454858.26,44061,17.0,74306.3,1.11,0.25,0.25,0,*7B
1536454859.45,44062,17.0,74308.0,1.11,0.05,0.13,0,*4F
1536454860.66,44063,17.0,74302.8,1.11,0.17,0.17,0,*79
1536454861.88,44064,17.0,74306.3,1.11,0.25,0.25,0,*7E
1536454863.1,44065,17.0,74306.0,1.11,0.25,0.25,0,*7F
1536454864.29,44066,17.0,74306.3,1.11,0.05,0.13,0,*4B
1536454865.48,44067,17.0,74308.8,1.11,-0.37,-0.45,0,*78
1536454866.68,44068,17.0,74308.3,1.09,-0.49,-0.53,0,*70
1536454867.9,44069,17.0,74306.0,1.09,-0.53,-0.49,0,*71
1536454869.11,44070,17.0,74306.3,1.09,-0.53,-0.53,0,*72
1536454870.32,44071,16.94,74306.5,1.09,-0.45,-0.45,0,*73
1536454871.54,44072,17.0,74306.3,1.07,-0.41,-0.41,0,*7E
1536454872.76,44073,17.0,74310.3,1.07,-0.41,-0.41,0,*7F
1536454873.96,44074,17.0,74310.3,1.05,-0.37,-0.41,0,*7B
1536454875.13,44075,17.0,74306.8,1.05,-0.29,-0.29,0,*7B
1536454876.34,44076,17.0,74312.3,1.05,-0.19,-0.27,0,*75
1536454877.58,44077,17.0,74312.0,1.07,-0.19,-0.27,0,*76
1536454878.75,44078,17.0,74310.3,1.05,0.05,0.05,0,*76
1536454879.92,44079,17.0,74310.8,1.05,0.05,0.09,0,*7B
1536454881.12,44080,17.0,74314.0,1.07,0.09,0.05,0,*7F
1536454882.29,44081,16.94,74310.5,1.05,-0.07,-0.07,0,*70
1536454883.49,44082,17.0,74314.3,1.07,0.05,0.05,0,*71
1536454884.7,44083,17.0,74312.5,1.05,0.17,0.17,0,*72
1536454885.95,44084,17.0,74314.0,1.07,0.29,0.29,0,*77
1536454887.15,44085,17.0,74314.5,1.05,0.37,0.43,0,*77
1536454888.36,44086,17.0,74314.3,1.07,0.43,0.37,0,*76
1536454889.57,44087,17.0,74316.5,1.05,0.37,0.33,0,*72
1536454890.82,44088,17.0,74314.3,1.09,0.51,0.51,0,*75
1536454892.07,44089,17.0,74312.3,1.09,0.51,0.59,0,*7C
1536454893.32,44090,17.0,74310.8,1.09,0.51,0.59,0,*74
1536454894.56,44091,17.0,74310.5,1.09,0.51,0.59,0,*75
1536454895.79,44092,17.0,74310.0,1.11,0.55,0.67,0,*76
1536454897.03,44093,17.0,74312.3,1.09,0.59,0.59,0,*7F
1536454898.25,44094,17.0,74308.3,1.11,0.63,0.63,0,*71
1536454899.46,44095,16.94,74306.5,1.11,0.63,0.63,0,*70
1536454900.68,44096,17.0,74308.0,1.11,0.63,0.67,0,*77
1536454901.89,44097,17.0,74306.3,1.11,0.63,0.67,0,*76
1536454903.11,44098,17.0,74306.8,1.11,0.67,0.63,0,*79
1536454904.32,44099,17.0,74306.3,1.11,0.67,0.63,0,*78
1536454905.54,44100,16.94,74306.5,1.11,0.63,0.63,0,*7D
1536454906.78,44101,17.0,74310.3,1.13,0.63,0.63,0,*7E
1536454908.03,44102,17.0,74308.8,1.13,0.63,0.63,0,*7D
1536454909.24,44103,17.0,74310.5,1.15,0.67,0.67,0,*7A
1536454910.47,44104,17.0,74306.3,1.15,0.55,0.59,0,*71
1536454911.72,44105,17.0,74304.5,1.13,0.63,0.55,0,*7F
1536454912.95,44106,17.0,74304.8,1.15,0.59,0.59,0,*7F
1536454914.17,44107,17.0,74306.0,1.15,0.71,0.71,0,*7E
1536454915.41,44108,16.94,74302.8,1.13,0.67,0.67,0,*77
1536454916.63,44109,17.0,74304.0,1.15,0.67,0.71,0,*77
1536454917.85,44110,17.0,74296.8,1.15,0.71,0.71,0,*78
1536454919.07,44111,17.0,74292.5,1.15,0.71,0.67,0,*7E
1536454920.31,44112,17.0,74294.0,1.17,0.67,0.71,0,*7F
1536454921.55,44113,17.0,74298.0,1.17,0.71,0.79,0,*71
1536454922.8,44114,16.94,74296.5,1.17,0.79,0.79,0,*7E
1536454924.05,44115,16.94,74298.3,1.17,0.79,0.79,0,*7F
1536454925.29,44116,17.0,74296.0,1.17,0.79,0.79,0,*7C
1536454926.54,44117,17.0,74296.3,1.21,0.83,0.83,0,*78
1536454927.79,44118,17.0,74298.3,1.17,0.83,0.83,0,*72
1536454929.04,44119,17.0,74298.3,1.17,0.79,0.83,0,*76
1536454930.28,44120,17.0,74302.0,1.17,0.83,0.87,0,*7D
1536454931.53,44121,16.94,74296.5,1.21,0.87,0.87,0,*7D
1536454932.78,44122,17.0,74298.3,1.21,0.87,0.87,0,*7E
1536454934.03,44123,17.0,74298.3,1.21,0.83,0.83,0,*7F
1536454935.27,44124,17.0,74294.0,1.21,0.83,0.87,0,*7C
1536454936.52,44125,17.0,74292.5,1.21,0.83,0.87,0,*7D
1536454937.77,44126,17.0,74288.3,1.21,0.87,0.83,0,*7E
1536454939.02,44127,17.0,74286.8,1.21,0.87,0.87,0,*7B
1536454940.26,44128,17.0,74292.5,1.21,0.83,0.83,0,*74
1536454941.51,44129,17.0,74292.3,1.25,0.91,0.87,0,*76
1536454942.77,44130,16.94,74294.0,1.25,0.87,0.91,0,*7E
1536454943.99,44131,16.94,74298.3,1.23,0.79,0.87,0,*7F
1536454945.24,44132,17.0,74298.0,1.25,0.91,0.87,0,*7C
1536454946.5,44133,17.0,74294.0,1.25,0.87,0.91,0,*7D
1536454947.75,44134,17.0,74298.0,1.25,0.91,0.91,0,*7D
1536454949.0,44135,17.0,74298.3,1.25,0.87,0.87,0,*7C
1536454950.23,44136,16.94,74294.0,1.25,0.75,0.79,0,*73
1536454951.47,44137,17.0,74296.3,1.25,0.75,0.75,0,*7E
1536454952.7,44138,16.94,74296.3,1.23,0.75,0.75,0,*77
1536454953.94,44139,17.0,74296.5,1.25,0.75,0.75,0,*70
1536454955.18,44140,16.94,74298.8,1.25,0.75,0.75,0,*7E
1536454956.41,44141,17.0,74300.5,1.25,0.67,0.67,0,*7F
1536454957.64,44142,17.0,74298.8,1.25,0.63,0.63,0,*7C
1536454958.88,44143,17.0,74300.0,1.25,0.63,0.55,0,*78
1536454960.13,44144,17.0,74302.8,1.25,0.55,0.55,0,*7A
1536454961.38,44145,17.0,74302.5,1.25,0.55,0.51,0,*7F
1536454962.62,44146,17.0,74302.8,1.25,0.51,0.51,0,*78
1536454963.87,44147,17.0,74300.0,1.25,0.51,0.55,0,*7D
1536454965.09,44148,17.0,74300.5,1.23,0.51,0.51,0,*70
1536454966.33,44149,16.94,74296.0,1.25,0.63,0.55,0,*72
1536454967.58,44150,17.0,74300.0,1.25,0.55,0.55,0,*7F
1536454968.82,44151,17.0,74296.3,1.25,0.51,0.47,0,*79
1536454970.07,44152,16.94,74296.8,1.25,0.47,0.47,0,*7D
1536454971.3,44153,17.0,74302.0,1.25,0.37,0.41,0,*7D
1536454972.52,44154,17.0,74302.5,1.23,0.29,0.25,0,*71
1536454973.76,44155,17.0,74304.5,1.25,0.25,0.25,0,*7A
1536454974.97,44156,17.0,74302.0,1.23,0.25,0.25,0,*7F
1536454976.15,44157,17.0,74304.3,1.27,-0.03,-0.07,0,*7E
1536454977.36,44158,17.0,74304.3,1.23,-0.23,-0.19,0,*78
1536454978.57,44159,17.0,74304.5,1.23,-0.23,-0.19,0,*79
1536454979.82,44160,17.0,74304.8,1.21,-0.27,-0.27,0,*78
1536454981.02,44161,17.0,74300.5,1.15,-0.37,-0.37,0,*7E
1536454982.23,44162,17.0,74306.0,1.17,-0.37,-0.37,0,*7F
1536454983.43,44163,16.94,74302.3,1.17,-0.29,-0.29,0,*7E
1536454984.63,44164,17.0,74306.0,1.17,-0.29,-0.29,0,*79
1536454985.87,44165,17.0,74306.5,1.15,-0.27,-0.27,0,*7A
1536454987.05,44166,17.0,74304.3,1.15,-0.03,0.05,0,*52
1536454988.24,44167,17.0,74304.8,1.15,0.17,0.09,0,*47
1536454989.47,44168,17.0,74304.5,1.15,0.29,0.29,0,*77
1536454990.69,44169,17.0,74306.0,1.15,0.41,0.41,0,*76
1536454991.92,44170,17.0,74310.5,1.15,0.47,0.47,0,*7E
1536454993.17,44171,17.0,74306.3,1.13,0.51,0.55,0,*7D
1536454994.42,44172,17.0,74310.3,1.13,0.55,0.55,0,*7A
1536454995.67,44173,17.0,74304.0,1.17,0.71,0.71,0,*7F
1536454996.9,44174,17.0,74304.5,1.17,0.67,0.67,0,*78
1536454998.13,44175,17.0,74306.5,1.17,0.67,0.67,0,*79
1536454999.37,44176,16.94,74302.8,1.17,0.67,0.71,0,*7D
1536455000.6,44177,17.0,74304.8,1.17,0.67,0.67,0,*7B
1536455001.85,44178,17.0,74304.8,1.17,0.71,0.71,0,*74
1536455003.09,44179,17.0,74304.3,1.21,0.75,0.71,0,*74
1536455004.32,44180,17.0,74306.5,1.17,0.67,0.67,0,*73
1536455005.56,44181,16.94,74304.8,1.21,0.71,0.75,0,*73
1536455006.8,44182,17.0,74304.3,1.21,0.75,0.71,0,*70
1536455008.04,44183,17.0,74304.3,1.21,0.75,0.75,0,*75
1536455009.29,44184,16.94,74306.5,1.21,0.83,0.83,0,*72
1536455010.51,44185,17.0,74306.0,1.23,0.79,0.79,0,*71
1536455011.76,44186,17.0,74306.8,1.21,0.87,0.75,0,*7D
1536455013.01,44187,17.0,74306.8,1.21,0.87,0.87,0,*71
1536455014.25,44188,17.0,74310.3,1.23,0.91,0.91,0,*7C
1536455015.48,44189,17.0,74308.3,1.23,0.87,0.91,0,*7A
1536455016.71,44190,16.94,74306.3,1.23,0.91,0.91,0,*75
1536455017.95,44191,17.0,74310.5,1.23,0.87,0.91,0,*73
1536455019.2,44192,16.94,74306.3,1.25,0.87,0.91,0,*76
1536455020.42,44193,16.94,74310.0,1.23,0.79,0.87,0,*77
1536455021.66,44194,17.0,74314.8,1.25,0.75,0.79,0,*7B
1536455022.9,44195,17.0,74308.3,1.25,0.79,0.79,0,*76
1536455024.14,44196,17.0,74310.5,1.25,0.75,0.75,0,*75
1536455025.39,44197,17.0,74308.5,1.25,0.79,0.75,0,*78
1536455026.61,44198,17.0,74308.3,1.23,0.75,0.75,0,*7D
1536455027.85,44199,17.0,74306.8,1.25,0.75,0.75,0,*7A
1536455029.09,44200,17.0,74306.8,1.25,0.75,0.79,0,*75
1536455030.31,44201,17.0,74304.8,1.23,0.75,0.79,0,*72
1536455031.53,44202,17.0,74306.5,1.27,0.79,0.83,0,*7C
1536455032.76,44203,16.94,74306.3,1.27,0.91,0.83,0,*7B
1536455033.96,44204,17.0,74308.0,1.27,0.91,1.01,0,*47
1536455035.16,44205,17.0,74310.3,1.27,0.95,1.01,0,*42
1536455036.34,44206,17.0,74304.5,1.27,1.01,1.01,0,*7D
1536455037.52,44207,16.94,74306.3,1.27,1.01,1.01,0,*7C
1536455038.71,44208,17.0,74310.0,1.27,1.01,0.95,0,*4F
1536455039.89,44209,16.94,74306.5,1.27,1.01,1.01,0,*72
1536455041.09,44210,16.94,74304.3,1.29,1.01,1.05,0,*70
1536455042.34,44211,17.0,74304.8,1.29,0.91,0.95,0,*71
1536455043.56,44212,17.0,74306.5,1.29,0.95,1.01,0,*4A
1536455044.78,44213,17.0,74304.3,1.29,0.95,1.01,0,*4B
1536455046.0,44214,17.0,74302.8,1.29,0.95,1.01,0,*4C
1536455047.22,44215,17.0,74302.5,1.29,0.95,1.05,0,*49
1536455048.44,44216,17.0,74300.8,1.29,1.01,0.95,0,*4E
1536455049.65,44217,17.0,74296.3,1.31,1.05,1.09,0,*76
1536455050.84,44218,17.0,74298.8,1.31,0.95,0.97,0,*77
1536455052.03,44219,16.94,74296.3,1.31,0.97,0.95,0,*76
1536455053.22,44220,17.0,74300.3,1.31,0.95,0.97,0,*7C
1536455054.42,44221,17.0,74304.3,1.33,0.97,0.97,0,*7D
1536455055.61,44222,17.0,74300.5,1.31,0.95,0.97,0,*7E
1536455056.8,44223,17.0,74302.8,1.33,0.97,0.97,0,*7F
1536455057.97,44224,17.0,74306.3,1.31,0.97,0.97,0,*7A
1536455059.14,44225,17.0,74300.8,1.31,0.97,0.97,0,*7B
1536455060.34,44226,17.0,74306.8,1.33,0.97,0.97,0,*7A
1536455061.55,44227,17.0,74306.5,1.33,0.97,0.95,0,*79
1536455062.74,44228,17.0,74300.5,1.33,0.97,0.97,0,*74
1536455063.96,44229,17.0,74306.0,1.33,0.95,0.97,0,*77
1536455065.15,44230,17.0,74302.0,1.33,0.97,0.97,0,*7D
1536455066.35,44231,16.94,74300.3,1.33,0.97,1.05,0,*46
1536455067.55,44232,16.94,74304.8,1.33,0.97,1.05,0,*45
1536455068.75,44233,17.0,74306.0,1.33,0.97,1.05,0,*44
1536455069.95,44234,17.0,74302.0,1.33,0.97,1.05,0,*43
1536455071.12,44235,17.0,74302.5,1.35,1.05,1.05,0,*7E
1536455072.35,44236,17.0,74302.8,1.37,1.05,1.13,0,*78
1536455073.55,44237,17.0,74298.0,1.35,0.97,1.09,0,*4A
1536455074.73,44238,17.0,74300.0,1.35,1.01,1.01,0,*73
1536455075.93,44239,17.0,74298.5,1.35,0.97,1.09,0,*44
1536455077.17,44240,16.94,74298.3,1.37,1.13,1.05,0,*79
1536455078.37,44241,16.94,74296.5,1.37,1.05,1.05,0,*7F
1536455079.54,44242,17.0,74302.3,1.35,0.97,1.01,0,*40
1536455080.71,44243,17.0,74302.5,1.35,0.97,1.05,0,*45
1536455081.92,44244,17.0,74300.8,1.37,1.05,1.05,0,*7A
1536455083.12,44245,16.94,74296.8,1.37,1.01,1.01,0,*7B
1536455084.35,44246,17.0,74300.0,1.37,1.13,1.05,0,*7F
1536455085.56,44247,17.0,74300.3,1.37,1.05,1.05,0,*79
1536455086.79,44248,16.94,74296.0,1.37,1.05,1.13,0,*71
1536455088.05,44249,17.0,74300.5,1.37,1.13,1.13,0,*77
1536455089.28,44250,17.0,74298.3,1.37,1.05,1.13,0,*78
1536455090.48,44251,17.0,74298.3,1.37,1.01,1.05,0,*7A
1536455091.68,44252,17.0,74294.0,1.37,1.05,1.01,0,*79
1536455092.91,44253,17.0,74292.3,1.37,1.05,1.13,0,*7B
1536455094.12,44254,17.0,74298.8,1.39,1.01,1.13,0,*76
1536455095.32,44255,17.0,74300.0,1.39,1.05,1.13,0,*73
1536455096.53,44256,17.0,74298.5,1.39,1.05,1.13,0,*70
1536455097.72,44257,17.0,74300.3,1.39,1.05,1.05,0,*76
1536455098.9,44258,17.0,74300.3,1.39,1.05,1.05,0,*79
1536455100.08,44259,17.0,74302.8,1.39,1.05,1.05,0,*78
1536455101.26,44260,17.0,74300.5,1.39,1.05,1.01,0,*76
1536455102.45,44261,17.0,74304.8,1.39,1.05,1.05,0,*73
1536455103.68,44262,17.0,74306.3,1.43,1.05,1.09,0,*71
1536455104.86,44263,17.0,74302.5,1.39,1.05,1.01,0,*75
1536455106.04,44264,17.0,74300.3,1.39,1.05,1.05,0,*76
1536455107.28,44265,17.0,74296.0,1.43,1.09,1.01,0,*72
1536455108.46,44266,17.0,74296.8,1.39,1.01,1.05,0,*70
1536455109.72,44267,16.94,74298.3,1.43,1.09,1.09,0,*78
1536455110.96,44268,17.0,74302.0,1.43,1.05,1.09,0,*7B
1536455112.22,44269,17.0,74300.8,1.43,1.09,1.09,0,*76
1536455113.4,44270,17.0,74302.8,1.39,1.01,1.05,0,*77
1536455114.59,44271,16.94,74300.3,1.39,1.05,1.05,0,*72
1536455115.85,44272,17.0,74302.5,1.43,1.09,1.09,0,*7C
1536455117.11,44273,16.94,74300.5,1.43,1.09,1.09,0,*7D
1536455118.35,44274,17.0,74306.0,1.43,1.01,1.09,0,*72
1536455119.58,44275,17.0,74300.5,1.45,1.09,1.09,0,*7D
1536455120.77,44276,16.94,74300.8,1.45,1.05,1.05,0,*7E
1536455121.95,44277,17.0,74300.8,1.45,1.05,1.05,0,*7F
1536455123.13,44278,17.0,74302.8,1.45,0.97,1.05,0,*4A
1536455124.3,44279,16.94,74296.5,1.45,0.97,0.97,0,*71
1536455125.52,44280,17.0,74294.8,1.45,0.95,0.95,0,*77
1536455126.7,44281,16.94,74294.8,1.45,0.97,0.97,0,*76
1536455127.91,44282,16.94,74292.0,1.43,0.95,0.97,0,*71
1536455129.09,44283,16.94,74298.3,1.45,0.97,0.97,0,*74
1536455130.26,44284,17.0,74306.3,1.45,0.97,0.97,0,*73
1536455131.46,44285,16.94,74300.8,1.43,0.97,0.97,0,*74
1536455132.64,44286,17.0,74302.8,1.45,1.05,1.05,0,*71
1536455133.88,44287,17.0,74304.3,1.45,1.09,1.09,0,*70
1536455135.06,44288,17.0,74302.3,1.45,0.97,1.05,0,*45
1536455136.24,44289,16.94,74300.0,1.45,0.97,1.05,0,*44
1536455137.44,44290,17.0,74300.8,1.47,1.01,1.01,0,*74
1536455138.65,44291,16.94,74298.5,1.47,0.97,1.01,0,*4B
1536455139.85,44292,17.0,74300.0,1.47,1.01,1.01,0,*76
1536455141.03,44293,17.0,74302.8,1.45,0.97,1.05,0,*4F
1536455142.21,44294,17.0,74302.8,1.45,0.97,0.97,0,*72
1536455143.39,44295,17.0,74300.8,1.45,0.97,1.05,0,*49
1536455144.62,44296,17.0,74302.3,1.47,1.01,1.09,0,*7A
1536455145.85,44297,17.0,74298.3,1.47,1.01,1.13,0,*70
1536455147.05,44298,17.0,74298.3,1.45,0.95,1.05,0,*46
1536455148.23,44299,17.0,74300.5,1.45,0.97,0.97,0,*7F
1536455149.42,44300,17.0,74296.8,1.47,0.97,0.97,0,*7C
1536455150.62,44301,17.0,74298.5,1.45,0.95,0.97,0,*7D
1536455151.81,44302,17.0,74300.0,1.47,0.97,0.97,0,*7E
1536455153.01,44303,16.94,74298.8,1.47,0.97,0.97,0,*7F
1536455154.21,44304,16.94,74298.5,1.45,0.95,0.97,0,*78
1536455155.41,44305,17.0,74300.3,1.47,0.97,1.01,0,*47
1536455156.63,44306,16.94,74302.3,1.45,0.95,0.87,0,*7B
1536455157.89,44307,16.94,74300.5,1.47,0.91,0.91,0,*7B
1536455159.12,44308,17.0,74306.3,1.45,0.87,0.87,0,*76
1536455160.32,44309,17.0,74306.5,1.47,1.01,0.97,0,*4B
1536455161.53,44310,17.0,74306.5,1.47,1.01,1.01,0,*7D
1536455162.73,44311,17.0,74306.0,1.47,1.01,0.97,0,*42
1536455163.93,44312,17.0,74308.5,1.47,1.01,1.01,0,*7F
1536455165.13,44313,16.94,74306.5,1.45,0.97,0.95,0,*7E
1536455166.34,44314,17.0,74308.5,1.47,1.01,1.01,0,*79
1536455167.55,44315,17.0,74306.5,1.45,0.95,0.95,0,*7A
1536455168.76,44316,17.0,74304.5,1.47,0.97,1.01,0,*45
1536455169.95,44317,17.0,74306.0,1.47,0.97,0.97,0,*7A
1536455171.16,44318,17.0,74304.3,1.47,1.01,1.01,0,*75
1536455172.36,44319,16.94,74302.8,1.47,0.97,0.97,0,*74
1536455173.55,44320,17.0,74306.0,1.45,0.95,0.97,0,*7E
1536455174.81,44321,16.94,74302.8,1.47,0.91,0.91,0,*7F
1536455176.03,44322,17.0,74300.5,1.47,0.87,0.97,0,*7D
1536455177.23,44323,16.94,74302.3,1.47,0.97,0.97,0,*7D
1536455178.43,44324,16.94,74300.3,1.47,0.97,0.97,0,*7A
1536455179.63,44325,17.0,74300.0,1.47,0.97,0.97,0,*7B
1536455180.84,44326,17.0,74302.8,1.45,0.95,0.95,0,*7A
1536455182.07,44327,17.0,74300.0,1.45,0.91,0.95,0,*7F
1536455183.27,44328,17.0,74296.3,1.47,0.97,0.97,0,*76
1536455184.49,44329,17.0,74294.8,1.47,0.91,0.97,0,*71
1536455185.69,44330,16.94,74290.5,1.47,1.01,0.97,0,*41
1536455186.9,44331,17.0,74292.3,1.47,0.97,1.01,0,*40
1536455188.1,44332,17.0,74290.8,1.47,1.01,1.01,0,*7D
1536455189.31,44333,17.0,74294.0,1.47,1.01,1.01,0,*7C
1536455190.5,44334,16.94,74290.0,1.47,0.97,0.97,0,*7B
1536455191.77,44335,17.0,74292.5,1.47,1.09,1.09,0,*7A
1536455192.97,44336,16.94,74292.0,1.47,1.01,1.01,0,*79
1536455194.18,44337,17.0,74292.3,1.47,1.01,1.01,0,*78
1536455195.38,44338,17.0,74294.8,1.47,0.97,1.01,0,*49
1536455196.56,44339,17.0,74294.8,1.49,1.01,1.01,0,*78
1536455197.79,44340,16.94,74294.8,1.45,0.87,0.87,0,*7A
1536455199.05,44341,17.0,74294.0,1.47,0.87,0.91,0,*7E
1536455200.28,44342,17.0,74298.8,1.49,0.91,0.91,0,*74
1536455201.5,44343,17.0,74298.3,1.49,0.91,0.87,0,*72
1536455202.73,44344,16.94,74294.3,1.49,0.91,0.87,0,*75
1536455203.99,44345,17.0,74298.3,1.47,0.91,0.87,0,*7A
1536455205.23,44346,17.0,74296.8,1.47,0.75,0.75,0,*7E
1536455206.45,44347,17.0,74300.3,1.49,0.75,0.79,0,*7D
1536455207.66,44348,16.94,74298.8,1.49,0.75,0.75,0,*7E
1536455208.88,44349,16.94,74298.0,1.49,0.63,0.75,0,*78
1536455210.12,44350,16.94,74292.5,1.47,0.71,0.63,0,*7A
1536455211.33,44351,16.94,74294.0,1.45,0.67,0.67,0,*7A
1536455212.58,44352,17.0,74302.8,1.47,0.71,0.71,0,*7B
1536455213.82,44353,17.0,74296.0,1.47,0.71,0.71,0,*7A
1536455215.03,44354,16.94,74296.8,1.45,0.67,0.67,0,*7F
1536455216.28,44355,17.0,74296.0,1.47,0.71,0.71,0,*7C
1536455217.52,44356,17.0,74300.0,1.47,0.71,0.71,0,*7F
1536455218.77,44357,17.0,74300.5,1.47,0.71,0.63,0,*7D
1536455219.98,44358,17.0,74298.8,1.45,0.59,0.67,0,*7E
1536455221.23,44359,17.0,74298.8,1.47,0.63,0.71,0,*73
1536455222.44,44360,17.0,74298.3,1.45,0.67,0.67,0,*78
1536455223.66,44361,16.94,74298.3,1.45,0.59,0.59,0,*79
1536455224.89,44362,16.94,74292.8,1.45,0.55,0.59,0,*76
1536455226.11,44363,17.0,74298.8,1.45,0.55,0.47,0,*78
1536455227.34,44364,16.94,74296.3,1.45,0.47,0.47,0,*7C
1536455228.59,44365,17.0,74296.8,1.43,0.55,0.55,0,*7B
1536455229.81,44366,17.0,74296.5,1.45,0.47,0.47,0,*7E
1536455231.06,44367,16.94,74296.0,1.43,0.59,0.55,0,*75
1536455232.3,44368,17.0,74300.8,1.43,0.59,0.59,0,*76
1536455233.55,44369,17.0,74300.8,1.43,0.59,0.55,0,*7B
1536455234.8,44370,16.94,74298.5,1.43,0.55,0.59,0,*73
1536455235.97,44371,16.94,74292.8,1.39,0.43,0.43,0,*73
1536455237.21,44372,17.0,74300.5,1.43,0.47,0.55,0,*7E
1536455238.43,44373,16.94,74296.3,1.43,0.43,0.47,0,*78
1536455239.6,44374,17.0,74298.0,1.39,0.43,0.43,0,*76
1536455240.79,44375,16.94,74296.5,1.39,0.41,0.43,0,*75
1536455242.0,44376,16.94,74298.8,1.39,0.33,0.33,0,*74
1536455243.22,44377,17.0,74298.3,1.39,0.33,0.29,0,*7E
1536455244.47,44378,16.94,74296.5,1.43,0.29,0.21,0,*7F
1536455245.7,44379,16.94,74296.8,1.37,0.29,0.29,0,*75
1536455246.91,44380,16.94,74294.3,1.35,0.25,0.17,0,*70
1536455248.16,44381,17.0,74298.0,1.43,0.21,0.21,0,*71
1536455249.37,44382,17.0,74296.3,1.35,0.17,0.17,0,*73
1536455250.58,44383,16.94,74294.3,1.35,0.25,0.17,0,*73
1536455251.79,44384,17.0,74296.8,1.35,0.25,0.25,0,*75
1536455253.0,44385,16.94,74296.5,1.35,0.25,0.29,0,*78
1536455254.21,44386,16.94,74294.3,1.35,0.17,0.17,0,*77
1536455255.42,44387,17.0,74296.8,1.35,0.13,0.17,0,*72
1536455256.6,44388,17.0,74300.3,1.35,0.05,0.13,0,*4E
1536455257.76,44389,17.0,74302.3,1.35,0.01,0.05,0,*7C
1536455258.95,44390,17.0,74302.0,1.31,-0.11,-0.11,0,*74
1536455260.2,44391,17.0,74300.0,1.33,-0.23,-0.27,0,*73
1536455261.38,44392,17.0,74300.8,1.31,-0.61,-0.61,0,*76
1536455262.61,44393,17.0,74302.0,1.29,-0.81,-0.93,0,*7D
1536455263.83,44394,17.0,74302.3,1.27,-0.93,-0.93,0,*77
1536455265.07,44395,16.94,74298.0,1.25,-1.09,-1.21,0,*7E
1536455266.31,44396,16.94,74296.3,1.25,-1.13,-1.25,0,*72
1536455267.5,44397,17.0,74300.0,1.23,-1.21,-1.25,0,*74
1536455268.75,44398,17.0,74300.3,1.21,-1.29,-1.35,0,*70
1536455269.97,44399,16.94,74298.5,1.17,-1.21,-1.29,0,*71
1536455271.23,44400,17.0,74300.5,1.17,-1.13,-1.13,0,*7E
1536455272.47,44401,17.0,74298.5,1.15,-0.89,-0.93,0,*76
1536455273.73,44402,17.0,74304.5,1.13,-0.97,-0.97,0,*78
1536455274.96,44403,17.0,74302.5,1.11,-0.97,-0.97,0,*7B
1536455276.22,44404,17.0,74302.5,1.13,-0.85,-0.93,0,*79
1536455277.48,44405,16.94,74302.8,1.09,-0.89,-1.01,0,*45
1536455278.73,44406,16.94,74302.8,1.09,-0.85,-0.97,0,*74
1536455279.96,44407,16.94,74302.0,1.09,-0.77,-0.85,0,*7B
1536455281.22,44408,16.94,74302.0,1.09,-0.85,-0.85,0,*79
1536455282.43,44409,17.0,74306.3,1.09,-0.65,-0.73,0,*7F
1536455283.65,44410,16.94,74302.3,1.07,-0.69,-0.69,0,*7E
1536455284.84,44411,16.94,74300.8,1.05,-0.81,-0.77,0,*74
1536455286.05,44412,16.94,74300.8,1.07,-0.69,-0.77,0,*73
1536455287.24,44413,17.0,74304.3,1.05,-0.65,-0.69,0,*73
1536455288.42,44414,16.94,74300.0,1.05,-0.65,-0.69,0,*74
1536455289.6,44415,17.0,74300.8,1.05,-0.65,-0.65,0,*79
1536455290.78,44416,17.0,74302.0,1.05,-0.57,-0.65,0,*7B
1536455291.97,44417,16.94,74300.3,1.05,-0.53,-0.57,0,*7F
1536455293.15,44418,16.94,74300.5,1.01,-0.53,-0.57,0,*74
1536455294.34,44419,16.94,74300.5,1.01,-0.45,-0.45,0,*71
1536455295.53,44420,16.94,74300.3,1.01,-0.41,-0.41,0,*7B
1536455296.71,44421,16.94,74302.8,1.01,-0.33,-0.33,0,*7A
1536455297.92,44422,17.0,74306.0,1.01,-0.29,-0.23,0,*73
1536455299.15,44423,17.0,74302.8,1.01,-0.23,-0.23,0,*78
1536455300.34,44424,17.0,74300.5,1.01,-0.19,-0.11,0,*77
1536455301.55,44425,17.0,74300.3,1.01,-0.23,-0.19,0,*77
1536455302.74,44426,17.0,74302.3,1.01,-0.11,-0.11,0,*7D
1536455303.93,44427,16.94,74300.5,1.01,-0.11,-0.11,0,*7C
1536455305.12,44428,16.94,74300.8,1.01,-0.11,-0.19,0,*7B
1536455306.31,44429,16.94,74300.0,1.01,-0.19,-0.11,0,*7A
1536455307.5,44430,17.0,74304.5,1.01,-0.07,-0.11,0,*4D
1536455308.67,44431,17.0,74304.0,1.01,-0.07,-0.07,0,*7B
1536455309.85,44432,17.0,74304.5,1.01,-0.07,-0.19,0,*47
1536455311.06,44433,16.94,74300.3,1.01,-0.23,-0.19,0,*70
1536455312.29,44434,16.94,74302.0,1.01,-0.23,-0.23,0,*7E
1536455313.52,44435,17.0,74302.8,1.01,-0.23,-0.23,0,*7F
1536455314.78,44436,16.94,74300.3,0.99,-0.23,-0.23,0,*4C
1536455316.01,44437,16.94,74300.3,0.99,-0.15,-0.23,0,*48
1536455317.26,44438,16.94,74300.0,0.99,-0.23,-0.23,0,*42
1536455318.48,44439,16.94,74302.0,0.99,-0.15,-0.15,0,*43
1536455319.67,44440,16.94,74302.0,1.01,-0.11,-0.11,0,*7D
1536455320.86,44441,16.94,74300.5,1.01,-0.11,-0.11,0,*7C
1536455322.06,44442,17.0,74304.5,0.99,-0.15,-0.03,0,*78
1536455323.25,44443,16.94,74304.8,1.01,-0.19,-0.07,0,*41
1536455324.44,44444,16.94,74304.0,1.01,-0.19,-0.11,0,*71
1536455325.63,44445,16.94,74304.0,1.01,-0.19,-0.11,0,*70
1536455326.86,44446,17.0,74304.8,0.99,-0.15,-0.23,0,*4E
1536455328.12,44447,17.0,74304.0,0.99,-0.23,-0.27,0,*4E
1536455329.37,44448,16.94,74302.3,0.99,-0.27,-0.27,0,*45
1536455330.56,44449,16.94,74302.3,0.97,-0.33,-0.33,0,*4A
1536455331.77,44450,16.94,74300.3,0.99,-0.45,-0.45,0,*4C
1536455332.98,44451,16.94,74302.5,0.99,-0.45,-0.37,0,*48